Weather Roundup
Issued by NWS Chicago, IL

Home | Current Version | Previous Version | Text Only | Print | Product List | Glossary Off
Versions: 1 2 3 4 5 6 7 8 9 10 11 12 13 14 15 16 17 18 19 20 21 22 23 24 25 26 27 28 29 30 31 32 33 34 35 36 37 38 39 40 41 42 43 44 45 46 47 48 49 50

000
NZUS59 KLOT 210558
HRRLOT

CHICAGO AREA WEATHER ROUNDUP
NATIONAL WEATHER SERVICE CHICAGO/ROMEOVILLE IL
100 AM CDT SUN SEP 21 2014

NOTE: "FAIR" INDICATES FEW OR NO CLOUDS BELOW 12,000 FEET WITH NO
SIGNIFICANT WEATHER AND/OR OBSTRUCTIONS TO VISIBILITY.

* THESE STATIONS ARE NOT UNDER NWS QUALITY CONTROL. THEY ALSO MAY NOT
  REPORT WEATHER SUCH AS PRECIPITATION OR FOG.

ILZ005-006-012>014-019>023-210700-
NORTHEAST ILLINOIS

CITY           SKY/WX    TMP DP  RH WIND       PRES   REMARKS
OHARE          NOT AVBL
MIDWAY         MOCLDY    71  66  84 SW13      29.72F THUNDER
AURORA         CLOUDY    65  60  84 W8        29.75F
6HR MIN TEMP:  64; 6HR MAX TEMP:  72; 6HR PCP:  0.17;

WAUKEGAN       CLOUDY    64  62  93 VRB3      29.68F
6HR MIN TEMP:  64; 6HR MAX TEMP:  69; 6HR PCP:  0.42;

DUPAGE AIRPORT   N/A    N/A N/A N/A MISG      29.73F
6HR MIN TEMP:  65; 6HR MAX TEMP:  71; 6HR PCP:  0.16;

WHEELING       LGT RAIN  69  64  84 W13G22    29.72R
6HR MIN TEMP:  67; 6HR MAX TEMP:  74; 6HR PCP:  0.07;

NORTHERLY IS     N/A     71  64  78 SW13        N/A
$$

WIZ051-052-058>065-066-070>072-210700-
SOUTHEAST WISCONSIN

CITY           SKY/WX    TMP DP  RH WIND       PRES   REMARKS
MILWAUKEE      MOCLDY    63  60  90 W8        29.68F
6HR MIN TEMP:  63; 6HR MAX TEMP:  72; 6HR PCP:  0.20;

KENOSHA*       CLOUDY    63  62  97 W8        29.68F
$$

INZ001>003-010>013-019-020-210700-
NORTHWEST INDIANA

CITY           SKY/WX    TMP DP  RH WIND       PRES   REMARKS
GARY*          NOT AVBL
MICHIGAN CITY* NOT AVBL
RENSSELAER*    NOT AVBL
$$

LMZ740>746-210700-
SOUTHERN LAKE MICHIGAN

STATION/POSITION TIME  SKY/WX   TEMP WIND        PRES    VSBY
                                AIR  DIR/SP/G
                 (UTC)          (F)  (DEG/KT/KT) (MB)    (MI)
HARRISON CRIB    0500            71  210/ 20/ 26   N/A
BURNHAM HARBOR   0500            71  190/  6/ 10   N/A
CALUMET HARBOR   0500            71  200/ 11/ 14 1005.1F
BURNS HARBOR     NOT AVBL
MICHIGAN CITY    0500            69  170/ 15/ 19   N/A
$$

ABBREVIATIONS USED IN REMARKS
   TC - TEMPERATURE IN CELSIUS
  WCI - WIND CHILL INDEX
   HX - HEAT INDEX
  VSB - VISIBILITY
$$


USA.gov is the U.S. government's official web portal to all federal, state and local government web resources and services.